[[{"header":{"parameterUnit":"m.s-1","parameterCategory":1,"la1":30.2991,"la2":30.254,"lo1":-89.0895,"lo2":-89.0444,"dy":0.0017,"dx":0.0017,"nx":28,"ny":28,"refTime":"2026-02-04T03:00:00:Z","depth":0,"parameterNumber":2,"parameterNumberName":"U-component_of_WINDS"},"data":[0,0,0,0,0,0,0,0,0,0,0,0,0,0,0,0,0,0,0,0,0,0,0,0,0,0,0,0,0,0,0,0,0,0,0,0,0,0,0,0,0,0,0,0,0,0,0,0,0,0,0,0,0,0,0,0,0,0,4.2477,4.2478,0,4.2562,4.2563,4.2564,4.2496,4.2493,4.249,4.2488,4.2575,4.258,4.2585,0,0,0,0,0,0,0,0,0,0,0,0,0,4.2256,4.2261,4.2477,4.2478,4.2479,4.2562,4.2563,4.2565,4.2497,4.2493,4.249,4.2486,4.2574,4.2579,4.2585,0,0,0,0,0,0,0,0,0,0,0,0,0,4.2348,4.2262,4.2477,4.2455,4.2454,4.2562,4.2563,4.2565,4.2498,4.2493,4.2489,4.2485,4.2572,4.2579,4.2586,4.272,0,0,4.2609,4.2613,0,0,0,0,0,0,0,0,4.2343,4.2356,4.2458,4.2457,4.2456,4.2514,4.2517,4.2617,4.2499,4.2481,4.2488,4.2483,4.2558,4.2567,4.2592,4.2724,4.2728,4.261,4.2615,4.2618,4.262,0,0,0,0,0,0,0,4.2337,4.2352,4.2511,4.2459,4.2458,4.2442,4.245,4.2536,4.2543,4.2482,4.2478,4.2489,4.2557,4.2585,4.2594,4.2729,4.261,4.2617,4.2621,4.2624,4.2975,4.2979,0,0,0,0,0,0,4.2332,4.2347,4.2508,4.2513,4.2388,4.2449,4.2458,4.25,4.2542,4.2544,4.2492,4.2485,4.2574,4.2585,4.2597,4.2756,4.2618,4.2625,4.2629,4.297,4.2976,4.2981,0,0,0,0,0,0,4.2328,4.2347,4.2505,4.2429,4.2448,4.2458,4.2505,4.2504,4.2532,4.2549,4.255,4.252,4.2571,4.2586,4.269,4.2758,4.2628,4.2635,4.2964,4.2972,4.2978,4.3075,0,0,0,0,0,0,4.2322,4.2346,4.2397,4.2431,4.2452,4.2597,4.2509,4.2509,4.2545,4.2537,4.2575,4.2578,4.2569,4.2679,4.2697,4.2766,4.2641,4.2958,4.2968,4.2976,4.3066,4.3085,4.3101,0,0,0,0,0,4.2314,4.2421,4.24,4.2419,4.2516,4.2601,4.2613,4.2601,4.2551,4.2602,4.2613,4.2576,4.2748,4.269,4.271,4.2782,4.2954,4.2965,4.2975,4.3058,4.3081,4.3101,0,0,0,0,0,0,4.2394,4.2425,4.2402,4.2522,4.2559,4.2589,4.2653,4.2626,4.2678,4.2668,4.2651,4.266,4.2769,4.2786,4.2721,4.2914,4.2843,4.2858,4.2899,4.2921,4.2938,4.2931,4.2647,0,0,0,0,0,4.2426,4.2492,4.2515,4.2619,4.2639,4.2643,4.268,4.2667,4.2705,4.272,4.2739,4.2778,4.284,4.2881,4.294,4.3068,4.3076,4.3128,4.3145,4.316,4.3173,4.3243,4.3266,4.3016,4.3016,4.3016,0,0,4.2492,4.2517,4.256,4.2636,4.2663,4.2733,4.2657,4.2733,4.2784,4.2732,4.2831,4.2847,4.2888,4.3005,4.3057,4.3022,4.3244,4.3173,4.3185,4.319,4.3256,4.328,4.3301,4.3024,4.3022,4.3021,0,0,4.2648,4.2673,4.2763,4.2792,4.2834,4.2836,4.2858,4.2892,4.29,4.3,4.2962,4.3023,4.3131,4.3162,4.3192,4.3361,4.3329,4.338,4.3471,4.3539,4.3559,4.3576,4.3637,4.3659,4.3393,4.3394,4.3394,0,4.2724,4.2827,4.2812,4.2892,4.2927,4.2883,4.2974,4.3003,4.3062,4.3087,4.3047,4.3182,4.3207,4.3331,4.3372,4.3398,4.3422,4.3375,4.3557,4.3575,4.3591,4.3648,4.3671,4.34,4.3399,4.3398,4.3398,0,4.292,4.2991,4.3059,4.3117,4.316,4.3245,4.3243,4.3288,4.3273,4.3279,4.3381,4.3409,4.3473,4.3501,4.3487,4.3624,4.3601,4.356,4.3488,4.3621,4.3674,4.3696,4.3408,4.3406,4.3404,4.3403,0,0,4.3127,4.3177,4.3202,4.3229,4.3272,4.3328,4.3411,4.3473,4.3512,4.3555,4.3624,4.3717,4.3679,4.3713,4.3702,4.3762,4.3894,4.3713,4.3714,4.3746,4.4047,4.4077,4.4103,4.3873,4.3878,4.3881,4.4043,0,4.3285,4.3429,4.3419,4.3555,4.3622,4.3582,4.3654,4.3689,4.3698,4.3755,4.3764,4.383,4.3776,4.3796,4.3854,4.3866,4.3954,4.3854,4.3938,4.3941,4.3928,4.4131,4.4163,4.4315,4.4064,4.4068,4.407,0,4.3488,4.3538,4.3681,4.3715,4.3743,4.3808,4.3865,4.392,4.3959,4.3961,4.4,4.3979,4.4063,4.399,4.4106,4.4038,4.4072,4.4083,4.4089,4.4096,4.4013,4.4143,4.4363,4.4386,4.4103,4.41,4.4098,0,4.3626,4.3729,4.3827,4.3851,4.3894,4.3941,4.3961,4.3995,4.4034,4.4083,4.4108,4.4167,4.4199,4.4245,4.4241,4.4188,4.4359,4.4285,4.4363,4.4363,4.44,4.4398,4.4628,4.4423,4.4422,4.4422,4.4421,0,4.3803,4.3892,4.389,4.3951,4.4049,4.4037,4.4135,4.415,4.4181,4.4244,4.4213,4.4273,4.4264,4.4324,4.4321,4.4418,4.4433,4.4437,4.4435,4.4439,4.4439,4.4461,4.445,4.4428,4.4427,4.4425,4.4424,0,4.3972,4.3975,4.408,4.4112,4.4122,4.4193,4.4221,4.4278,4.4284,4.4365,4.4383,4.4393,4.4462,4.4463,4.4542,4.454,4.4658,4.4644,4.4645,4.4642,4.472,4.4713,4.4973,4.5006,4.4779,4.4781,4.4783,0,4.4085,4.4153,4.4192,4.4232,4.4255,4.432,4.4359,4.435,4.4391,4.4442,4.4494,4.456,4.4613,4.4726,4.474,4.4801,4.4788,4.4875,4.4797,4.4799,4.4789,4.4785,4.4792,4.489,4.4893,4.4895,4.4896,0,4.4285,4.4283,4.434,4.4398,4.4446,4.4491,4.4533,4.4568,4.4563,4.4612,4.4682,4.4723,4.4805,4.4871,4.493,4.495,4.4923,4.4921,4.4942,4.4947,4.4945,4.4947,4.4686,4.4915,4.4913,4.4912,4.4911,4.491,4.443,4.4488,4.4525,4.459,4.462,4.466,4.4716,4.4729,4.4788,4.4853,4.4844,4.4923,4.4961,4.5037,4.5063,4.5125,4.5094,4.5125,4.5133,4.5141,4.5149,4.4936,4.5136,4.5135,4.5135,4.5134,4.5134,0,4.4628,4.4649,4.4709,4.4769,4.482,4.479,4.4835,4.488,4.495,4.4987,4.504,4.5122,4.5186,4.5206,4.5269,4.5314,4.5303,4.5331,4.5327,4.5333,4.5173,4.5148,4.5339,4.5339,4.5339,4.5339,4.5339,4.5339,4.4737,4.4834,4.4836,4.4948,4.4969,4.5046,4.5075,4.5112,4.5142,4.5234,4.5287,4.53,4.5331,4.5395,4.5453,4.5457,4.5482,4.5515,4.5514,4.5364,4.5344,4.5324,4.5301,4.552,4.5521,4.5668,4.567,4.5671]},{"header":{"parameterUnit":"m.s-1","parameterCategory":1,"la1":30.2991,"la2":30.254,"lo1":-89.0895,"lo2":-89.0444,"dy":0.0017,"dx":0.0017,"nx":28,"ny":28,"refTime":"2026-02-04T03:00:00:Z","depth":0,"parameterNumber":3,"parameterNumberName":"V-component_of_WINDS"},"data":[0,0,0,0,0,0,0,0,0,0,0,0,0,0,0,0,0,0,0,0,0,0,0,0,0,0,0,0,0,0,0,0,0,0,0,0,0,0,0,0,0,0,0,0,0,0,0,0,0,0,0,0,0,0,0,0,0,0,-4.0083,-4.0085,0,-4.0267,-4.0269,-4.0271,-4.0271,-4.0268,-4.0266,-4.0264,-4.0453,-4.046,-4.0467,0,0,0,0,0,0,0,0,0,0,0,0,0,-3.9733,-3.9739,-4.0083,-4.0086,-4.0088,-4.0267,-4.027,-4.0272,-4.0271,-4.0268,-4.0265,-4.0262,-4.045,-4.0459,-4.0468,0,0,0,0,0,0,0,0,0,0,0,0,0,-3.9898,-3.9741,-4.0083,-4.0109,-4.0113,-4.0266,-4.027,-4.0273,-4.0272,-4.0268,-4.0264,-4.0261,-4.0448,-4.0458,-4.0469,-4.0609,0,0,-4.0502,-4.0507,0,0,0,0,0,0,0,0,-3.9888,-3.991,-4.0103,-4.0107,-4.0112,-4.0242,-4.0215,-4.0385,-4.0273,-4.0212,-4.0263,-4.0259,-4.0386,-4.0401,-4.0444,-4.0618,-4.0626,-4.0503,-4.051,-4.0515,-4.0518,0,0,0,0,0,0,0,-3.9877,-3.9903,-4.0156,-4.0106,-4.0112,-4.0112,-4.0131,-4.0247,-4.0317,-4.0217,-4.0217,-4.0239,-4.0388,-4.0433,-4.0448,-4.0629,-4.0503,-4.0513,-4.0519,-4.0524,-4.0927,-4.0931,0,0,0,0,0,0,-3.986,-3.9893,-4.015,-4.0162,-3.9989,-4.0121,-4.0143,-4.0204,-4.0315,-4.0329,-4.0242,-4.0238,-4.0417,-4.0436,-4.0455,-4.0627,-4.0515,-4.0525,-4.0531,-4.0923,-4.0928,-4.0932,0,0,0,0,0,0,-3.9852,-3.9883,-4.0143,-4.0028,-4.0061,-4.0131,-4.02,-4.021,-4.0256,-4.0334,-4.0347,-4.0276,-4.0414,-4.044,-4.0571,-4.0633,-4.053,-4.054,-4.0918,-4.0924,-4.093,-4.097,0,0,0,0,0,0,-3.9842,-3.988,-3.9934,-4.0029,-4.0067,-4.0255,-4.0204,-4.0216,-4.0274,-4.0271,-4.037,-4.0382,-4.0414,-4.0554,-4.0582,-4.0646,-4.0548,-4.0913,-4.0921,-4.0928,-4.0964,-4.0977,-4.0989,0,0,0,0,0,-3.983,-3.9938,-3.9936,-3.9967,-4.0135,-4.0259,-4.028,-4.0314,-4.0279,-4.0334,-4.0385,-4.0379,-4.0622,-4.0568,-4.0598,-4.0667,-4.0909,-4.0919,-4.0928,-4.0958,-4.0975,-4.0988,0,0,0,0,0,0,-3.9848,-3.995,-3.995,-4.0092,-4.0167,-4.0258,-4.0328,-4.033,-4.0416,-4.041,-4.0448,-4.0471,-4.0601,-4.0648,-4.0585,-4.0809,-4.0761,-4.0777,-4.0774,-4.079,-4.0802,-4.0789,-4.0557,0,0,0,0,0,-3.9869,-3.996,-4.0045,-4.0162,-4.0199,-4.0257,-4.0312,-4.0332,-4.0411,-4.0442,-4.0503,-4.058,-4.0673,-4.0734,-4.0825,-4.097,-4.0992,-4.1033,-4.1045,-4.1055,-4.1069,-4.115,-4.1169,-4.0963,-4.0963,-4.0963,0,0,-3.9912,-3.9979,-4.0035,-4.0167,-4.0227,-4.0321,-4.0284,-4.0385,-4.0456,-4.0458,-4.0585,-4.0632,-4.0721,-4.086,-4.0924,-4.0902,-4.113,-4.1067,-4.1075,-4.1083,-4.1161,-4.1181,-4.1198,-4.097,-4.0968,-4.0967,0,0,-4.0039,-4.0099,-4.0203,-4.0265,-4.0356,-4.0394,-4.0419,-4.0511,-4.0542,-4.0671,-4.0674,-4.0759,-4.092,-4.0983,-4.1036,-4.1188,-4.1186,-4.1216,-4.1282,-4.136,-4.1376,-4.1391,-4.1446,-4.1465,-4.1229,-4.123,-4.123,0,-4.0082,-4.0224,-4.0257,-4.0359,-4.0417,-4.0423,-4.053,-4.0587,-4.0704,-4.0744,-4.0718,-4.092,-4.098,-4.1135,-4.1172,-4.1214,-4.1245,-4.1205,-4.1371,-4.1386,-4.14,-4.1453,-4.1473,-4.1233,-4.1232,-4.1232,-4.1232,0,-4.0272,-4.037,-4.0443,-4.0555,-4.0622,-4.0726,-4.0775,-4.0839,-4.0853,-4.0893,-4.1025,-4.1097,-4.1203,-4.1241,-4.1255,-4.1398,-4.1381,-4.1363,-4.1316,-4.1422,-4.1473,-4.1493,-4.1237,-4.1236,-4.1235,-4.1234,0,0,-4.0415,-4.0545,-4.0571,-4.0622,-4.0724,-4.0801,-4.0905,-4.1008,-4.1062,-4.1143,-4.1231,-4.1367,-4.1351,-4.1412,-4.1433,-4.1502,-4.1619,-4.1476,-4.1478,-4.15,-4.1781,-4.1794,-4.1817,-4.1618,-4.1622,-4.1625,-4.1773,0,-4.0554,-4.0738,-4.0771,-4.0933,-4.1024,-4.1032,-4.1123,-4.1195,-4.1237,-4.1321,-4.1366,-4.1462,-4.1434,-4.147,-4.1539,-4.159,-4.1676,-4.158,-4.1702,-4.1706,-4.1679,-4.1843,-4.1857,-4.1993,-4.1793,-4.1796,-4.1799,0,-4.0739,-4.0824,-4.0995,-4.1084,-4.1124,-4.1205,-4.1303,-4.1383,-4.1466,-4.1491,-4.1559,-4.1573,-4.1682,-4.163,-4.1781,-4.1715,-4.1767,-4.18,-4.1806,-4.1818,-4.1759,-4.186,-4.2038,-4.2058,-4.183,-4.1827,-4.1825,0,-4.0827,-4.0984,-4.1107,-4.115,-4.1258,-4.1315,-4.1363,-4.1442,-4.1502,-4.1587,-4.1627,-4.1724,-4.1777,-4.1852,-4.1893,-4.1851,-4.2041,-4.1992,-4.2066,-4.2065,-4.2105,-4.2102,-4.2294,-4.2139,-4.2138,-4.2138,-4.2137,0,-4.0979,-4.1083,-4.1148,-4.1223,-4.134,-4.1378,-4.1493,-4.154,-4.161,-4.1695,-4.1708,-4.1787,-4.1835,-4.1922,-4.1954,-4.2075,-4.2099,-4.2123,-4.213,-4.2122,-4.2119,-4.2157,-4.2148,-4.2143,-4.2142,-4.2141,-4.214,0,-4.1097,-4.1145,-4.1279,-4.137,-4.1395,-4.1477,-4.1556,-4.1629,-4.1671,-4.1778,-4.1806,-4.1871,-4.1973,-4.2021,-4.2148,-4.217,-4.2307,-4.2308,-4.2279,-4.2282,-4.2353,-4.2346,-4.2575,-4.2608,-4.2431,-4.2432,-4.2434,0,-4.119,-4.127,-4.137,-4.1428,-4.1477,-4.1569,-4.1631,-4.1671,-4.1735,-4.1835,-4.1897,-4.2,-4.2085,-4.2249,-4.2308,-4.2406,-4.2409,-4.2483,-4.2424,-4.2413,-4.2411,-4.2406,-4.2414,-4.2494,-4.2495,-4.2497,-4.2498,0,-4.1351,-4.137,-4.1458,-4.1555,-4.1627,-4.1705,-4.1782,-4.1829,-4.1881,-4.1952,-4.2057,-4.2123,-4.2253,-4.2356,-4.2458,-4.2507,-4.2512,-4.2516,-4.2538,-4.2531,-4.2511,-4.2523,-4.2309,-4.2511,-4.2509,-4.2508,-4.2508,-4.2507,-4.146,-4.1531,-4.1613,-4.171,-4.1772,-4.1844,-4.1918,-4.1968,-4.2056,-4.2165,-4.2184,-4.2296,-4.2378,-4.2515,-4.2568,-4.2657,-4.2639,-4.2672,-4.268,-4.2687,-4.2691,-4.2497,-4.2675,-4.2675,-4.2675,-4.2675,-4.2674,0,-4.1621,-4.1674,-4.1763,-4.187,-4.1947,-4.1944,-4.2029,-4.2094,-4.2192,-4.2268,-4.2351,-4.2472,-4.2572,-4.2639,-4.274,-4.2798,-4.2803,-4.2824,-4.282,-4.2832,-4.2701,-4.2672,-4.2818,-4.2818,-4.2818,-4.2818,-4.2818,-4.2818,-4.1714,-4.1836,-4.1865,-4.2018,-4.207,-4.218,-4.2229,-4.2295,-4.2355,-4.249,-4.2573,-4.2616,-4.2689,-4.2795,-4.2887,-4.2904,-4.2941,-4.2962,-4.2979,-4.2856,-4.2841,-4.2826,-4.2799,-4.297,-4.297,-4.3102,-4.3104,-4.3105]}]]